GEFSMW_prec_meanprecacc_198.txt.gz
Total_Precipitation_Accumulation
0.30 0.30 0.32 0.32 0.30 0.29 0.32 0.37 0.40 0.47 0.54 0.61 0.75 0.97 1.24 1.35 1.44 1.40 1.22 1.16 1.28 1.52 1.74 1.71 1.77 1.81 1.70 1.68 1.71 1.92 1.87 1.59 1.35 1.40 1.24 1.04 0.89 1.02 1.06 1.04 1.07 1.08 1.14
0.20 0.19 0.21 0.22 0.22 0.21 0.23 0.28 0.35 0.45 0.52 0.60 0.78 0.94 1.08 1.08 1.26 1.41 1.39 1.30 1.29 1.44 1.58 1.84 1.95 1.89 1.93 2.07 2.08 2.43 2.58 2.12 1.68 1.69 1.83 1.56 1.33 1.07 0.93 0.99 1.01 1.12 1.33
0.21 0.18 0.17 0.16 0.16 0.16 0.17 0.21 0.28 0.39 0.51 0.65 0.88 1.09 1.28 1.36 1.42 1.35 1.43 1.44 1.37 1.41 1.51 1.67 1.83 1.85 1.93 2.03 2.17 2.51 3.00 2.77 2.20 1.93 2.15 1.89 1.67 1.45 1.10 0.96 0.99 1.11 1.34
0.19 0.20 0.19 0.20 0.18 0.17 0.16 0.20 0.28 0.42 0.62 0.83 1.07 1.31 1.52 1.56 1.44 1.48 1.51 1.40 1.34 1.31 1.37 1.52 1.66 1.79 1.81 1.95 2.05 2.17 2.68 3.04 2.72 2.40 2.04 1.70 1.64 1.75 1.54 1.20 1.15 1.19 1.25
0.20 0.20 0.21 0.24 0.24 0.24 0.24 0.32 0.51 0.75 1.00 1.21 1.46 1.73 1.72 1.61 1.51 1.51 1.48 1.43 1.44 1.40 1.40 1.54 1.62 1.64 1.69 1.80 2.13 2.39 2.65 2.86 2.83 2.74 2.54 2.26 1.97 1.64 1.75 1.68 1.45 1.34 1.24
0.26 0.33 0.38 0.44 0.49 0.53 0.66 0.86 1.13 1.32 1.41 1.53 1.68 1.79 1.74 1.75 1.68 1.50 1.40 1.40 1.45 1.51 1.54 1.60 1.61 1.59 1.62 1.73 1.95 2.24 2.45 2.76 2.94 2.83 2.61 2.48 2.35 2.13 1.99 1.77 1.64 1.62 1.42
0.37 0.49 0.64 0.76 0.88 1.01 1.15 1.29 1.47 1.62 1.58 1.55 1.60 1.64 1.63 1.60 1.58 1.52 1.42 1.37 1.39 1.41 1.44 1.54 1.67 1.75 1.77 1.89 2.06 2.20 2.11 2.32 2.70 2.69 2.55 2.45 2.25 2.22 2.26 2.10 1.80 1.67 1.40
0.55 0.66 0.74 0.85 1.02 1.16 1.22 1.24 1.34 1.45 1.43 1.41 1.38 1.35 1.42 1.43 1.37 1.29 1.27 1.31 1.38 1.36 1.30 1.35 1.45 1.59 1.76 1.81 1.86 1.87 1.85 1.97 2.22 2.30 2.46 2.57 2.33 2.19 2.06 1.98 2.03 1.80 1.53
0.83 0.98 1.08 1.20 1.24 1.28 1.34 1.26 1.26 1.32 1.33 1.28 1.19 1.17 1.22 1.28 1.28 1.22 1.22 1.20 1.20 1.12 1.04 1.05 1.09 1.17 1.27 1.35 1.50 1.59 1.71 1.74 1.87 2.03 2.14 2.29 2.38 2.29 2.07 1.98 1.97 1.94 1.76
1.08 1.37 1.61 1.79 1.62 1.35 1.25 1.21 1.14 1.15 1.25 1.24 1.16 1.10 1.17 1.17 1.16 1.18 1.15 1.13 1.12 1.04 0.96 0.93 0.88 0.85 0.84 0.90 1.08 1.27 1.40 1.49 1.65 1.84 1.96 1.98 2.04 2.23 2.18 2.00 1.97 1.90 1.79
1.22 1.37 1.57 1.75 1.66 1.35 1.12 1.14 1.16 1.14 1.13 1.12 1.13 1.12 1.08 0.97 0.96 1.01 0.99 0.97 0.97 1.01 1.00 0.92 0.86 0.92 0.92 0.90 0.96 1.02 1.08 1.15 1.30 1.44 1.57 1.72 1.98 2.27 2.28 2.22 2.10 1.98 1.84
1.13 1.11 1.16 1.23 1.26 1.12 0.93 0.90 1.05 1.12 1.08 1.04 1.06 1.05 0.95 0.88 0.85 0.83 0.79 0.70 0.67 0.69 0.78 0.87 0.82 0.80 0.83 0.86 0.93 0.95 0.99 1.02 1.11 1.21 1.34 1.52 1.81 2.15 2.36 2.43 2.31 2.15 2.01
1.10 1.07 0.98 0.92 0.95 0.92 0.84 0.81 0.94 1.09 1.14 1.11 0.96 0.86 0.82 0.79 0.77 0.68 0.63 0.59 0.52 0.52 0.57 0.67 0.67 0.76 0.84 0.86 0.89 0.90 0.94 0.96 1.05 1.19 1.25 1.30 1.50 1.70 1.90 2.08 2.20 2.19 2.16
0.79 0.74 0.68 0.64 0.64 0.67 0.70 0.76 0.87 0.96 1.09 1.20 1.10 0.95 0.85 0.78 0.73 0.65 0.60 0.55 0.52 0.55 0.61 0.74 0.78 0.73 0.71 0.76 0.86 0.90 0.86 0.85 0.89 0.97 1.07 1.17 1.21 1.37 1.51 1.62 1.81 2.02 2.26
0.40 0.40 0.39 0.36 0.36 0.37 0.38 0.47 0.61 0.76 0.96 1.17 1.18 1.03 0.95 0.87 0.74 0.68 0.66 0.62 0.65 0.61 0.63 0.73 0.84 0.91 0.85 0.83 0.91 0.88 0.86 0.85 0.84 0.89 0.90 0.96 0.98 1.05 1.23 1.27 1.49 1.82 2.08
0.27 0.27 0.25 0.23 0.18 0.17 0.19 0.21 0.31 0.48 0.65 0.82 0.91 0.88 0.79 0.68 0.65 0.63 0.60 0.57 0.55 0.51 0.51 0.55 0.62 0.71 0.75 0.96 0.91 0.75 0.71 0.77 0.83 0.88 0.87 0.89 0.84 0.82 0.89 1.02 1.15 1.45 1.66
0.22 0.22 0.21 0.21 0.19 0.18 0.18 0.18 0.23 0.29 0.39 0.52 0.62 0.63 0.57 0.50 0.47 0.50 0.50 0.47 0.42 0.44 0.42 0.42 0.42 0.47 0.62 0.70 0.55 0.53 0.59 0.72 0.84 0.91 0.94 0.90 0.84 0.89 0.90 0.92 0.93 1.00 1.18
0.20 0.20 0.20 0.19 0.16 0.15 0.14 0.16 0.18 0.20 0.22 0.27 0.32 0.34 0.35 0.35 0.35 0.37 0.37 0.37 0.37 0.37 0.36 0.41 0.47 0.48 0.50 0.56 0.46 0.46 0.56 0.75 0.88 0.88 0.84 0.91 0.92 0.94 1.01 0.94 1.01 0.97 0.95
0.11 0.10 0.10 0.09 0.07 0.07 0.07 0.08 0.09 0.10 0.10 0.11 0.14 0.16 0.19 0.22 0.27 0.29 0.33 0.42 0.44 0.41 0.41 0.51 0.57 0.51 0.44 0.50 0.50 0.55 0.69 0.82 0.90 0.87 0.86 0.94 0.98 1.11 1.16 1.07 1.12 1.08 1.04
0.03 0.03 0.03 0.03 0.02 0.02 0.03 0.03 0.04 0.05 0.06 0.06 0.07 0.09 0.11 0.13 0.18 0.23 0.26 0.27 0.29 0.34 0.41 0.43 0.40 0.41 0.47 0.54 0.52 0.64 0.82 0.95 1.04 1.00 0.99 1.18 1.13 1.11 1.06 1.03 1.18 1.15 1.01
0.01 0.01 0.01 0.01 0.01 0.01 0.02 0.02 0.02 0.03 0.04 0.06 0.08 0.11 0.11 0.11 0.12 0.11 0.09 0.12 0.17 0.19 0.21 0.22 0.27 0.34 0.49 0.54 0.57 0.77 0.86 0.93 1.08 1.10 1.06 0.99 1.13 1.07 0.99 0.99 1.04 1.18 1.07
0.01 0.01 0.01 0.01 0.01 0.01 0.01 0.02 0.02 0.03 0.03 0.05 0.07 0.08 0.07 0.06 0.07 0.07 0.06 0.07 0.10 0.12 0.15 0.17 0.23 0.29 0.36 0.43 0.49 0.62 0.75 0.84 1.00 1.08 0.98 0.88 1.11 1.07 0.98 0.90 0.92 1.07 1.14
0.01 0.01 0.01 0.02 0.01 0.02 0.02 0.02 0.03 0.03 0.03 0.04 0.06 0.06 0.06 0.07 0.06 0.05 0.06 0.06 0.07 0.09 0.11 0.16 0.22 0.31 0.36 0.37 0.44 0.50 0.59 0.71 0.89 0.94 0.95 0.97 1.01 0.93 0.89 0.97 1.01 1.04 1.06
0.01 0.01 0.01 0.02 0.02 0.02 0.03 0.03 0.04 0.04 0.05 0.05 0.05 0.07 0.07 0.08 0.07 0.06 0.07 0.06 0.06 0.08 0.12 0.19 0.26 0.30 0.35 0.37 0.46 0.55 0.57 0.66 0.74 0.76 0.79 0.82 0.80 0.79 0.84 0.90 1.00 1.05 1.10
0.01 0.01 0.01 0.01 0.02 0.03 0.03 0.03 0.04 0.03 0.03 0.04 0.06 0.06 0.08 0.09 0.06 0.05 0.06 0.06 0.06 0.09 0.14 0.18 0.22 0.24 0.27 0.33 0.43 0.58 0.66 0.76 0.84 0.86 0.77 0.78 0.78 0.77 0.77 0.82 0.85 0.90 0.91
0.01 0.01 0.01 0.01 0.02 0.03 0.03 0.04 0.04 0.04 0.03 0.04 0.05 0.06 0.06 0.06 0.06 0.07 0.06 0.05 0.05 0.06 0.07 0.08 0.12 0.19 0.22 0.21 0.25 0.36 0.53 0.71 0.96 1.20 1.16 1.14 1.06 0.97 0.86 0.78 0.73 0.72 0.75

GEFSMW_prec_meanprecacc_204.txt.gz
Total_Precipitation_Accumulation
0.34 0.33 0.35 0.36 0.35 0.33 0.34 0.39 0.42 0.50 0.56 0.62 0.75 0.97 1.24 1.35 1.44 1.40 1.22 1.16 1.28 1.52 1.74 1.71 1.78 1.81 1.71 1.70 1.73 1.92 1.87 1.60 1.36 1.42 1.27 1.07 0.92 1.04 1.08 1.07 1.09 1.10 1.16
0.24 0.22 0.24 0.25 0.25 0.23 0.25 0.30 0.37 0.47 0.54 0.61 0.78 0.94 1.08 1.08 1.26 1.41 1.39 1.30 1.30 1.45 1.59 1.84 1.95 1.89 1.95 2.09 2.10 2.44 2.59 2.13 1.69 1.70 1.86 1.60 1.38 1.11 0.96 1.03 1.05 1.15 1.37
0.25 0.23 0.21 0.19 0.19 0.19 0.20 0.23 0.29 0.40 0.53 0.66 0.88 1.09 1.28 1.36 1.42 1.35 1.43 1.44 1.37 1.41 1.52 1.67 1.83 1.85 1.93 2.04 2.18 2.52 3.02 2.78 2.20 1.94 2.19 1.93 1.70 1.48 1.14 1.00 1.01 1.14 1.39
0.25 0.27 0.24 0.26 0.24 0.20 0.18 0.21 0.29 0.43 0.63 0.84 1.07 1.32 1.52 1.56 1.44 1.48 1.51 1.40 1.34 1.31 1.38 1.52 1.66 1.79 1.82 1.95 2.05 2.18 2.69 3.05 2.73 2.41 2.05 1.72 1.67 1.78 1.56 1.22 1.17 1.21 1.28
0.24 0.24 0.24 0.27 0.27 0.26 0.25 0.32 0.52 0.76 1.00 1.22 1.46 1.73 1.72 1.61 1.52 1.51 1.48 1.43 1.44 1.41 1.40 1.54 1.62 1.64 1.70 1.80 2.13 2.39 2.66 2.87 2.84 2.75 2.54 2.27 1.99 1.67 1.78 1.70 1.46 1.35 1.25
0.29 0.35 0.40 0.46 0.51 0.54 0.67 0.86 1.13 1.32 1.43 1.54 1.69 1.79 1.75 1.75 1.69 1.50 1.41 1.40 1.46 1.52 1.55 1.60 1.62 1.59 1.62 1.73 1.95 2.24 2.45 2.76 2.94 2.84 2.62 2.49 2.36 2.14 2.02 1.78 1.65 1.62 1.43
0.39 0.51 0.65 0.77 0.88 1.02 1.15 1.29 1.47 1.62 1.58 1.56 1.61 1.65 1.64 1.61 1.59 1.53 1.43 1.37 1.39 1.42 1.44 1.54 1.67 1.75 1.78 1.89 2.06 2.20 2.11 2.33 2.71 2.71 2.55 2.45 2.25 2.23 2.28 2.11 1.81 1.67 1.40
0.57 0.68 0.76 0.86 1.02 1.17 1.23 1.24 1.35 1.45 1.43 1.42 1.39 1.36 1.43 1.44 1.38 1.30 1.28 1.32 1.39 1.37 1.30 1.35 1.45 1.59 1.77 1.82 1.86 1.88 1.85 1.97 2.23 2.31 2.47 2.57 2.33 2.19 2.07 1.99 2.04 1.81 1.54
0.85 1.00 1.10 1.21 1.25 1.28 1.34 1.27 1.26 1.32 1.34 1.28 1.19 1.17 1.23 1.29 1.29 1.22 1.22 1.21 1.21 1.13 1.05 1.05 1.10 1.18 1.27 1.35 1.50 1.59 1.71 1.75 1.88 2.03 2.14 2.29 2.38 2.30 2.08 1.99 1.98 1.95 1.77
1.10 1.38 1.62 1.79 1.62 1.35 1.26 1.22 1.15 1.16 1.25 1.25 1.17 1.11 1.18 1.18 1.16 1.19 1.15 1.14 1.14 1.05 0.97 0.93 0.89 0.86 0.85 0.90 1.08 1.28 1.41 1.50 1.66 1.84 1.96 1.98 2.04 2.23 2.18 2.00 1.98 1.91 1.79
1.23 1.39 1.58 1.76 1.66 1.35 1.13 1.15 1.17 1.14 1.14 1.13 1.14 1.13 1.09 0.98 0.97 1.01 1.01 0.99 0.98 1.02 1.01 0.92 0.86 0.93 0.93 0.90 0.96 1.03 1.09 1.15 1.30 1.44 1.57 1.72 1.98 2.27 2.29 2.23 2.10 1.98 1.85
1.14 1.13 1.18 1.25 1.27 1.13 0.94 0.91 1.06 1.13 1.09 1.05 1.07 1.06 0.96 0.89 0.86 0.84 0.80 0.71 0.67 0.69 0.79 0.87 0.83 0.81 0.84 0.86 0.93 0.95 0.99 1.02 1.11 1.21 1.35 1.53 1.81 2.15 2.36 2.43 2.31 2.16 2.01
1.12 1.08 1.00 0.94 0.97 0.93 0.85 0.82 0.95 1.10 1.14 1.12 0.97 0.87 0.83 0.79 0.78 0.69 0.64 0.61 0.54 0.53 0.57 0.67 0.67 0.77 0.84 0.86 0.89 0.91 0.94 0.97 1.05 1.19 1.25 1.31 1.50 1.70 1.90 2.08 2.21 2.19 2.17
0.81 0.75 0.70 0.65 0.65 0.68 0.71 0.77 0.88 0.96 1.09 1.21 1.10 0.96 0.86 0.79 0.74 0.66 0.61 0.56 0.53 0.55 0.62 0.74 0.78 0.74 0.72 0.77 0.87 0.91 0.86 0.85 0.89 0.97 1.07 1.17 1.22 1.37 1.51 1.62 1.81 2.02 2.26
0.42 0.41 0.40 0.38 0.38 0.38 0.39 0.48 0.62 0.78 0.96 1.18 1.18 1.03 0.96 0.88 0.74 0.68 0.67 0.62 0.65 0.62 0.64 0.74 0.85 0.91 0.87 0.84 0.92 0.88 0.86 0.86 0.84 0.89 0.90 0.97 0.99 1.05 1.23 1.28 1.50 1.82 2.09
0.28 0.28 0.26 0.24 0.19 0.18 0.20 0.22 0.31 0.49 0.66 0.83 0.92 0.89 0.79 0.69 0.65 0.64 0.61 0.57 0.56 0.52 0.51 0.56 0.63 0.72 0.77 0.97 0.92 0.75 0.71 0.77 0.83 0.88 0.87 0.89 0.84 0.82 0.89 1.02 1.15 1.45 1.66
0.23 0.22 0.22 0.21 0.20 0.18 0.18 0.19 0.24 0.30 0.40 0.54 0.64 0.64 0.58 0.51 0.47 0.50 0.50 0.47 0.43 0.44 0.42 0.42 0.42 0.48 0.63 0.71 0.55 0.53 0.59 0.72 0.84 0.91 0.94 0.90 0.84 0.89 0.90 0.92 0.93 1.00 1.18
0.21 0.21 0.21 0.19 0.17 0.16 0.15 0.16 0.19 0.22 0.23 0.29 0.34 0.36 0.36 0.36 0.36 0.37 0.37 0.37 0.37 0.37 0.36 0.41 0.47 0.48 0.50 0.57 0.47 0.46 0.56 0.75 0.88 0.88 0.84 0.91 0.92 0.94 1.01 0.94 1.01 0.97 0.95
0.11 0.10 0.11 0.10 0.08 0.07 0.07 0.08 0.10 0.12 0.12 0.12 0.15 0.17 0.19 0.23 0.27 0.29 0.33 0.42 0.44 0.41 0.41 0.51 0.58 0.52 0.45 0.50 0.50 0.55 0.69 0.82 0.90 0.87 0.87 0.94 0.98 1.11 1.16 1.07 1.12 1.08 1.05
0.03 0.03 0.03 0.03 0.02 0.03 0.04 0.03 0.05 0.06 0.07 0.07 0.08 0.10 0.12 0.14 0.18 0.24 0.26 0.27 0.29 0.34 0.41 0.44 0.41 0.41 0.48 0.55 0.52 0.64 0.82 0.95 1.05 1.00 0.99 1.18 1.13 1.11 1.06 1.03 1.18 1.15 1.01
0.02 0.01 0.01 0.01 0.02 0.02 0.02 0.02 0.03 0.05 0.06 0.08 0.10 0.12 0.12 0.12 0.13 0.11 0.09 0.12 0.17 0.20 0.21 0.24 0.28 0.35 0.50 0.55 0.58 0.77 0.87 0.93 1.08 1.10 1.06 1.00 1.13 1.07 0.99 0.99 1.04 1.18 1.07
0.01 0.01 0.01 0.02 0.02 0.02 0.02 0.02 0.03 0.04 0.05 0.07 0.09 0.10 0.08 0.07 0.07 0.07 0.07 0.07 0.10 0.13 0.16 0.19 0.25 0.31 0.37 0.44 0.50 0.63 0.75 0.84 1.01 1.09 0.99 0.88 1.11 1.07 0.98 0.90 0.93 1.07 1.14
0.01 0.01 0.01 0.02 0.02 0.02 0.02 0.03 0.04 0.05 0.06 0.06 0.08 0.08 0.07 0.08 0.07 0.06 0.06 0.07 0.08 0.10 0.12 0.16 0.24 0.33 0.37 0.38 0.45 0.51 0.59 0.71 0.89 0.94 0.96 0.97 1.01 0.93 0.89 0.98 1.01 1.04 1.06
0.01 0.01 0.02 0.02 0.03 0.03 0.03 0.04 0.05 0.05 0.06 0.06 0.07 0.08 0.09 0.09 0.08 0.07 0.08 0.07 0.07 0.09 0.12 0.19 0.26 0.31 0.36 0.38 0.47 0.55 0.57 0.66 0.74 0.76 0.79 0.83 0.80 0.79 0.84 0.90 1.00 1.05 1.10
0.01 0.01 0.01 0.02 0.03 0.04 0.03 0.04 0.04 0.04 0.04 0.05 0.07 0.08 0.10 0.10 0.07 0.06 0.07 0.07 0.07 0.10 0.15 0.19 0.22 0.24 0.27 0.33 0.44 0.58 0.66 0.76 0.84 0.86 0.77 0.78 0.78 0.77 0.77 0.82 0.85 0.90 0.91
0.01 0.01 0.01 0.01 0.03 0.03 0.04 0.04 0.05 0.05 0.04 0.05 0.06 0.07 0.07 0.07 0.07 0.08 0.07 0.06 0.07 0.07 0.08 0.09 0.13 0.19 0.23 0.21 0.25 0.37 0.53 0.72 0.97 1.21 1.16 1.14 1.07 0.97 0.86 0.79 0.74 0.72 0.75

GEFSMW_prec_meanprecacc_210.txt.gz
Total_Precipitation_Accumulation
0.38 0.38 0.38 0.40 0.39 0.38 0.41 0.45 0.48 0.56 0.60 0.64 0.77 0.98 1.24 1.35 1.44 1.40 1.22 1.17 1.29 1.53 1.75 1.72 1.78 1.81 1.72 1.70 1.74 1.93 1.88 1.61 1.37 1.43 1.28 1.09 0.95 1.07 1.11 1.10 1.13 1.14 1.21
0.29 0.27 0.27 0.30 0.31 0.31 0.32 0.36 0.42 0.52 0.58 0.62 0.79 0.95 1.09 1.09 1.26 1.41 1.39 1.31 1.30 1.45 1.59 1.85 1.96 1.90 1.96 2.10 2.11 2.46 2.60 2.14 1.70 1.72 1.89 1.62 1.40 1.14 1.01 1.06 1.08 1.20 1.41
0.28 0.27 0.26 0.24 0.26 0.27 0.25 0.27 0.32 0.42 0.55 0.68 0.89 1.10 1.28 1.36 1.42 1.35 1.43 1.45 1.38 1.42 1.53 1.68 1.84 1.86 1.94 2.05 2.20 2.54 3.03 2.79 2.21 1.96 2.25 1.99 1.73 1.54 1.20 1.04 1.04 1.19 1.43
0.27 0.31 0.28 0.30 0.28 0.25 0.21 0.23 0.31 0.44 0.64 0.86 1.08 1.32 1.53 1.56 1.44 1.48 1.51 1.41 1.35 1.31 1.38 1.52 1.66 1.79 1.82 1.96 2.06 2.19 2.70 3.06 2.74 2.42 2.09 1.77 1.70 1.81 1.61 1.25 1.19 1.24 1.31
0.27 0.28 0.26 0.29 0.29 0.27 0.27 0.33 0.52 0.76 1.01 1.23 1.48 1.74 1.73 1.61 1.52 1.51 1.48 1.43 1.45 1.42 1.41 1.55 1.62 1.64 1.70 1.80 2.13 2.40 2.67 2.88 2.85 2.76 2.57 2.29 2.02 1.69 1.81 1.72 1.48 1.37 1.28
0.30 0.37 0.41 0.47 0.52 0.55 0.68 0.87 1.14 1.33 1.43 1.55 1.70 1.81 1.76 1.76 1.70 1.51 1.41 1.41 1.47 1.53 1.56 1.61 1.62 1.59 1.62 1.73 1.95 2.24 2.46 2.78 2.96 2.85 2.65 2.51 2.37 2.16 2.04 1.80 1.67 1.64 1.45
0.39 0.52 0.66 0.77 0.89 1.03 1.16 1.30 1.47 1.62 1.59 1.57 1.62 1.66 1.65 1.62 1.60 1.53 1.43 1.38 1.40 1.43 1.45 1.55 1.67 1.75 1.78 1.89 2.06 2.20 2.12 2.33 2.72 2.72 2.57 2.47 2.27 2.25 2.29 2.12 1.81 1.68 1.41
0.57 0.69 0.76 0.87 1.02 1.17 1.24 1.24 1.35 1.46 1.44 1.42 1.39 1.37 1.44 1.45 1.39 1.31 1.28 1.32 1.40 1.37 1.32 1.36 1.46 1.60 1.77 1.82 1.86 1.88 1.85 1.98 2.23 2.31 2.48 2.58 2.34 2.20 2.08 2.00 2.04 1.81 1.54
0.85 1.00 1.11 1.21 1.25 1.29 1.35 1.27 1.27 1.33 1.34 1.28 1.20 1.18 1.24 1.29 1.30 1.23 1.23 1.22 1.22 1.14 1.06 1.06 1.10 1.19 1.27 1.35 1.50 1.60 1.71 1.75 1.89 2.03 2.16 2.30 2.40 2.31 2.10 2.01 1.98 1.95 1.77
1.10 1.39 1.63 1.79 1.62 1.35 1.27 1.24 1.16 1.17 1.26 1.25 1.17 1.12 1.19 1.19 1.17 1.19 1.16 1.15 1.15 1.05 0.98 0.94 0.90 0.87 0.85 0.90 1.08 1.28 1.41 1.51 1.66 1.84 1.97 2.00 2.06 2.25 2.21 2.02 1.99 1.91 1.80
1.23 1.39 1.58 1.76 1.67 1.36 1.13 1.16 1.18 1.15 1.15 1.14 1.15 1.14 1.10 0.99 0.98 1.02 1.01 1.00 0.99 1.03 1.01 0.93 0.86 0.93 0.94 0.90 0.96 1.03 1.09 1.16 1.31 1.45 1.57 1.73 1.99 2.29 2.30 2.24 2.11 1.98 1.85
1.14 1.13 1.18 1.25 1.28 1.13 0.95 0.92 1.07 1.14 1.10 1.06 1.08 1.07 0.97 0.91 0.87 0.85 0.81 0.71 0.68 0.70 0.79 0.88 0.83 0.81 0.85 0.87 0.93 0.96 1.00 1.02 1.11 1.22 1.35 1.53 1.81 2.16 2.37 2.44 2.32 2.16 2.01
1.12 1.08 1.00 0.94 0.97 0.94 0.85 0.82 0.95 1.11 1.16 1.13 0.97 0.88 0.84 0.80 0.79 0.71 0.66 0.63 0.55 0.54 0.58 0.67 0.68 0.78 0.85 0.87 0.89 0.91 0.95 0.97 1.05 1.20 1.25 1.31 1.50 1.70 1.91 2.09 2.21 2.20 2.17
0.81 0.76 0.70 0.65 0.66 0.69 0.72 0.77 0.88 0.97 1.10 1.21 1.11 0.96 0.86 0.80 0.76 0.70 0.67 0.62 0.59 0.59 0.64 0.76 0.79 0.75 0.73 0.78 0.88 0.92 0.87 0.85 0.89 0.98 1.08 1.17 1.22 1.37 1.51 1.62 1.82 2.03 2.27
0.42 0.41 0.41 0.39 0.39 0.39 0.39 0.49 0.63 0.78 0.97 1.18 1.19 1.04 0.96 0.89 0.76 0.70 0.69 0.66 0.70 0.66 0.68 0.77 0.87 0.93 0.87 0.85 0.93 0.89 0.87 0.86 0.85 0.89 0.90 0.97 0.99 1.05 1.23 1.28 1.50 1.83 2.10
0.28 0.28 0.26 0.24 0.20 0.19 0.21 0.22 0.32 0.50 0.67 0.84 0.93 0.90 0.80 0.70 0.66 0.65 0.62 0.59 0.58 0.54 0.53 0.57 0.64 0.73 0.77 0.98 0.93 0.76 0.72 0.77 0.84 0.88 0.88 0.89 0.84 0.82 0.89 1.02 1.15 1.45 1.67
0.23 0.22 0.22 0.22 0.20 0.20 0.19 0.20 0.24 0.32 0.42 0.56 0.66 0.66 0.61 0.53 0.50 0.53 0.52 0.48 0.43 0.44 0.42 0.42 0.42 0.48 0.63 0.72 0.56 0.54 0.59 0.73 0.84 0.91 0.94 0.90 0.84 0.89 0.90 0.92 0.93 1.00 1.18
0.21 0.21 0.21 0.19 0.17 0.17 0.16 0.18 0.20 0.22 0.25 0.31 0.37 0.39 0.39 0.38 0.38 0.39 0.39 0.38 0.38 0.37 0.36 0.41 0.47 0.49 0.51 0.58 0.48 0.46 0.56 0.75 0.88 0.89 0.84 0.91 0.92 0.94 1.01 0.94 1.01 0.97 0.95
0.11 0.11 0.11 0.10 0.08 0.08 0.09 0.10 0.11 0.13 0.14 0.14 0.16 0.19 0.21 0.24 0.28 0.30 0.34 0.43 0.44 0.42 0.41 0.51 0.58 0.52 0.46 0.51 0.52 0.56 0.70 0.82 0.90 0.87 0.87 0.94 0.98 1.11 1.16 1.07 1.12 1.08 1.05
0.04 0.04 0.03 0.03 0.02 0.03 0.04 0.04 0.06 0.07 0.08 0.08 0.09 0.11 0.13 0.15 0.20 0.25 0.28 0.29 0.30 0.35 0.42 0.44 0.41 0.42 0.48 0.55 0.53 0.65 0.83 0.95 1.05 1.00 0.99 1.18 1.13 1.11 1.06 1.04 1.18 1.15 1.01
0.02 0.02 0.02 0.02 0.02 0.02 0.02 0.02 0.04 0.05 0.07 0.08 0.11 0.13 0.13 0.13 0.14 0.12 0.11 0.13 0.18 0.21 0.22 0.24 0.29 0.36 0.50 0.55 0.58 0.78 0.87 0.93 1.08 1.10 1.06 1.00 1.13 1.07 0.99 0.99 1.04 1.18 1.07
0.02 0.02 0.01 0.02 0.02 0.02 0.02 0.03 0.03 0.05 0.06 0.07 0.09 0.10 0.09 0.08 0.08 0.08 0.08 0.08 0.11 0.14 0.16 0.19 0.25 0.31 0.37 0.44 0.50 0.63 0.76 0.84 1.01 1.09 0.99 0.89 1.12 1.08 0.98 0.90 0.93 1.07 1.14
0.02 0.02 0.02 0.02 0.03 0.03 0.03 0.03 0.04 0.06 0.07 0.07 0.09 0.10 0.09 0.09 0.07 0.06 0.07 0.08 0.09 0.10 0.12 0.16 0.24 0.33 0.38 0.39 0.46 0.52 0.61 0.72 0.90 0.95 0.96 0.98 1.01 0.93 0.89 0.98 1.01 1.04 1.06
0.02 0.03 0.03 0.03 0.04 0.04 0.04 0.04 0.05 0.06 0.07 0.07 0.08 0.09 0.10 0.11 0.08 0.08 0.08 0.08 0.07 0.09 0.13 0.20 0.26 0.31 0.36 0.39 0.49 0.58 0.60 0.68 0.76 0.77 0.80 0.83 0.80 0.80 0.84 0.90 1.00 1.05 1.10
0.01 0.02 0.02 0.03 0.04 0.04 0.04 0.05 0.06 0.05 0.05 0.06 0.08 0.09 0.11 0.11 0.08 0.07 0.07 0.08 0.08 0.11 0.16 0.20 0.23 0.25 0.27 0.34 0.45 0.60 0.69 0.78 0.86 0.87 0.78 0.79 0.79 0.77 0.77 0.82 0.86 0.90 0.91
0.01 0.02 0.02 0.02 0.04 0.04 0.04 0.05 0.05 0.05 0.05 0.05 0.07 0.08 0.08 0.08 0.08 0.09 0.07 0.07 0.07 0.08 0.10 0.11 0.14 0.20 0.24 0.23 0.26 0.39 0.55 0.74 0.99 1.22 1.17 1.15 1.07 0.97 0.87 0.79 0.74 0.73 0.75

GEFSMW_prec_meanprecacc_216.txt.gz
Total_Precipitation_Accumulation
0.40 0.38 0.39 0.42 0.41 0.42 0.44 0.47 0.49 0.58 0.63 0.67 0.79 0.99 1.25 1.35 1.44 1.40 1.22 1.17 1.29 1.54 1.76 1.72 1.79 1.83 1.74 1.73 1.76 1.97 1.91 1.63 1.39 1.46 1.32 1.14 1.01 1.14 1.15 1.15 1.19 1.21 1.27
0.31 0.28 0.28 0.31 0.33 0.34 0.36 0.40 0.44 0.53 0.59 0.64 0.81 0.96 1.10 1.09 1.26 1.42 1.40 1.31 1.30 1.45 1.59 1.86 1.97 1.92 1.98 2.13 2.14 2.50 2.62 2.16 1.73 1.76 1.93 1.67 1.45 1.21 1.05 1.12 1.14 1.26 1.49
0.29 0.28 0.26 0.25 0.27 0.29 0.29 0.30 0.34 0.43 0.56 0.69 0.90 1.11 1.29 1.36 1.42 1.35 1.44 1.46 1.38 1.42 1.54 1.69 1.84 1.87 1.96 2.08 2.22 2.57 3.06 2.82 2.24 1.99 2.29 2.02 1.78 1.61 1.26 1.08 1.09 1.24 1.49
0.28 0.32 0.28 0.31 0.30 0.26 0.24 0.25 0.33 0.45 0.66 0.87 1.09 1.32 1.53 1.56 1.45 1.49 1.52 1.42 1.35 1.31 1.39 1.53 1.66 1.79 1.83 1.97 2.08 2.21 2.73 3.09 2.77 2.46 2.13 1.80 1.74 1.87 1.67 1.29 1.22 1.27 1.34
0.27 0.29 0.27 0.30 0.30 0.29 0.29 0.35 0.54 0.77 1.02 1.24 1.48 1.75 1.73 1.62 1.52 1.52 1.49 1.44 1.45 1.42 1.41 1.55 1.62 1.64 1.70 1.81 2.14 2.41 2.68 2.90 2.87 2.81 2.61 2.33 2.05 1.71 1.84 1.76 1.51 1.39 1.31
0.30 0.37 0.42 0.48 0.53 0.56 0.69 0.88 1.15 1.34 1.43 1.55 1.70 1.81 1.76 1.76 1.70 1.52 1.42 1.41 1.47 1.54 1.57 1.61 1.62 1.60 1.62 1.73 1.96 2.24 2.46 2.78 2.97 2.88 2.67 2.54 2.41 2.19 2.06 1.83 1.70 1.67 1.50
0.39 0.52 0.66 0.78 0.89 1.03 1.17 1.31 1.49 1.64 1.59 1.57 1.62 1.67 1.66 1.63 1.60 1.54 1.44 1.39 1.41 1.46 1.48 1.56 1.67 1.75 1.78 1.89 2.06 2.20 2.12 2.34 2.73 2.74 2.59 2.49 2.29 2.27 2.30 2.13 1.83 1.70 1.43
0.57 0.69 0.76 0.87 1.02 1.17 1.24 1.25 1.36 1.46 1.44 1.42 1.39 1.37 1.44 1.45 1.40 1.32 1.29 1.33 1.42 1.40 1.33 1.37 1.46 1.60 1.77 1.82 1.86 1.88 1.86 1.98 2.24 2.33 2.51 2.61 2.36 2.22 2.09 2.01 2.05 1.82 1.55
0.85 1.01 1.11 1.21 1.25 1.29 1.35 1.27 1.27 1.33 1.34 1.28 1.20 1.18 1.24 1.30 1.30 1.23 1.24 1.23 1.23 1.15 1.06 1.07 1.11 1.19 1.27 1.36 1.51 1.60 1.72 1.76 1.89 2.04 2.18 2.33 2.43 2.34 2.11 2.02 1.99 1.96 1.78
1.10 1.39 1.63 1.79 1.62 1.35 1.27 1.24 1.17 1.17 1.26 1.25 1.18 1.12 1.19 1.19 1.17 1.20 1.17 1.16 1.16 1.06 0.98 0.94 0.90 0.88 0.86 0.90 1.09 1.29 1.42 1.52 1.67 1.85 1.99 2.02 2.09 2.27 2.22 2.02 1.99 1.92 1.80
1.23 1.39 1.58 1.76 1.67 1.36 1.13 1.16 1.19 1.16 1.15 1.15 1.15 1.14 1.10 0.99 0.98 1.03 1.03 1.01 1.00 1.03 1.02 0.93 0.87 0.94 0.94 0.91 0.97 1.03 1.10 1.17 1.31 1.45 1.58 1.73 1.99 2.30 2.31 2.24 2.11 1.99 1.85
1.14 1.13 1.18 1.25 1.28 1.13 0.95 0.92 1.07 1.14 1.10 1.07 1.08 1.08 0.98 0.91 0.88 0.86 0.83 0.73 0.69 0.70 0.80 0.88 0.83 0.82 0.85 0.87 0.93 0.96 1.00 1.03 1.12 1.22 1.35 1.53 1.81 2.16 2.37 2.44 2.32 2.16 2.01
1.12 1.08 1.00 0.94 0.97 0.94 0.86 0.82 0.96 1.11 1.16 1.13 0.98 0.88 0.84 0.81 0.80 0.72 0.68 0.65 0.57 0.55 0.59 0.68 0.68 0.78 0.86 0.88 0.90 0.91 0.95 0.97 1.05 1.20 1.25 1.31 1.50 1.70 1.91 2.09 2.21 2.20 2.17
0.81 0.76 0.70 0.65 0.66 0.69 0.72 0.78 0.88 0.97 1.10 1.22 1.11 0.96 0.86 0.80 0.76 0.70 0.68 0.64 0.60 0.61 0.66 0.77 0.80 0.75 0.73 0.78 0.89 0.92 0.88 0.86 0.89 0.98 1.08 1.17 1.22 1.37 1.51 1.63 1.82 2.04 2.28
0.42 0.41 0.41 0.39 0.39 0.39 0.39 0.49 0.63 0.78 0.97 1.19 1.19 1.04 0.96 0.89 0.76 0.70 0.70 0.67 0.71 0.68 0.70 0.79 0.89 0.94 0.88 0.85 0.93 0.89 0.87 0.87 0.85 0.89 0.90 0.97 0.99 1.05 1.23 1.28 1.51 1.84 2.10
0.29 0.28 0.26 0.24 0.20 0.19 0.21 0.22 0.32 0.50 0.67 0.84 0.93 0.90 0.81 0.71 0.67 0.66 0.63 0.60 0.59 0.55 0.55 0.58 0.65 0.74 0.78 0.98 0.93 0.77 0.72 0.78 0.84 0.88 0.88 0.89 0.84 0.82 0.89 1.02 1.15 1.46 1.67
0.23 0.23 0.22 0.22 0.20 0.20 0.19 0.20 0.25 0.32 0.42 0.56 0.67 0.67 0.61 0.54 0.51 0.54 0.53 0.49 0.44 0.45 0.43 0.43 0.43 0.49 0.64 0.72 0.57 0.54 0.59 0.73 0.84 0.92 0.94 0.90 0.84 0.89 0.90 0.92 0.93 1.00 1.18
0.22 0.21 0.21 0.19 0.18 0.17 0.17 0.18 0.21 0.23 0.25 0.32 0.39 0.41 0.40 0.38 0.38 0.39 0.40 0.39 0.38 0.37 0.36 0.42 0.48 0.49 0.51 0.59 0.48 0.46 0.56 0.75 0.88 0.89 0.84 0.91 0.92 0.94 1.01 0.94 1.01 0.97 0.95
0.12 0.11 0.11 0.10 0.08 0.08 0.09 0.11 0.12 0.13 0.14 0.15 0.18 0.20 0.21 0.25 0.29 0.31 0.35 0.43 0.45 0.42 0.42 0.51 0.58 0.52 0.46 0.52 0.52 0.56 0.70 0.82 0.90 0.87 0.87 0.94 0.98 1.11 1.16 1.07 1.12 1.08 1.05
0.05 0.05 0.04 0.03 0.02 0.03 0.04 0.05 0.07 0.08 0.09 0.09 0.10 0.12 0.14 0.17 0.21 0.25 0.28 0.29 0.30 0.35 0.42 0.44 0.42 0.42 0.49 0.56 0.54 0.65 0.83 0.95 1.05 1.01 1.00 1.18 1.13 1.11 1.06 1.04 1.19 1.15 1.01
0.03 0.03 0.02 0.02 0.02 0.02 0.03 0.03 0.05 0.06 0.08 0.10 0.12 0.14 0.14 0.15 0.16 0.14 0.11 0.14 0.19 0.21 0.22 0.24 0.29 0.36 0.51 0.56 0.59 0.78 0.87 0.94 1.08 1.10 1.06 1.00 1.13 1.07 1.00 0.99 1.05 1.18 1.07
0.02 0.02 0.02 0.03 0.03 0.02 0.03 0.03 0.04 0.06 0.08 0.09 0.10 0.11 0.10 0.09 0.09 0.09 0.08 0.09 0.12 0.14 0.17 0.20 0.26 0.32 0.38 0.44 0.51 0.64 0.76 0.85 1.01 1.09 0.99 0.89 1.12 1.08 0.99 0.91 0.93 1.08 1.15
0.03 0.03 0.04 0.06 0.06 0.03 0.03 0.04 0.05 0.08 0.08 0.09 0.10 0.10 0.09 0.10 0.08 0.07 0.07 0.08 0.09 0.11 0.13 0.17 0.24 0.34 0.38 0.39 0.46 0.52 0.61 0.73 0.90 0.95 0.97 0.98 1.02 0.94 0.90 0.98 1.01 1.04 1.07
0.03 0.04 0.07 0.10 0.10 0.05 0.05 0.05 0.06 0.07 0.09 0.09 0.09 0.10 0.10 0.11 0.09 0.08 0.08 0.08 0.07 0.10 0.13 0.20 0.27 0.32 0.36 0.39 0.50 0.59 0.61 0.69 0.76 0.77 0.80 0.84 0.81 0.80 0.84 0.91 1.00 1.05 1.11
0.02 0.04 0.08 0.09 0.09 0.08 0.07 0.07 0.07 0.06 0.06 0.07 0.09 0.09 0.12 0.12 0.09 0.07 0.07 0.08 0.08 0.11 0.16 0.20 0.24 0.25 0.28 0.35 0.46 0.62 0.71 0.81 0.89 0.89 0.79 0.80 0.80 0.78 0.78 0.82 0.86 0.91 0.92
0.01 0.02 0.04 0.05 0.07 0.08 0.07 0.07 0.07 0.06 0.05 0.06 0.07 0.08 0.08 0.08 0.08 0.09 0.08 0.08 0.08 0.09 0.11 0.11 0.14 0.21 0.25 0.24 0.28 0.41 0.58 0.76 1.01 1.23 1.18 1.15 1.07 0.98 0.88 0.81 0.76 0.75 0.76

GEFSMW_prec_meanprecacc_222.txt.gz
Total_Precipitation_Accumulation
0.40 0.38 0.39 0.43 0.44 0.45 0.47 0.49 0.50 0.59 0.63 0.67 0.80 1.00 1.27 1.37 1.45 1.41 1.23 1.17 1.29 1.54 1.77 1.73 1.80 1.85 1.76 1.76 1.78 1.99 1.94 1.67 1.43 1.49 1.34 1.17 1.05 1.17 1.19 1.19 1.25 1.29 1.35
0.31 0.28 0.29 0.32 0.34 0.36 0.39 0.43 0.46 0.54 0.60 0.64 0.81 0.97 1.11 1.11 1.28 1.43 1.40 1.31 1.31 1.45 1.60 1.86 1.98 1.93 2.01 2.15 2.16 2.54 2.67 2.20 1.76 1.78 1.97 1.70 1.50 1.27 1.11 1.17 1.20 1.34 1.56
0.30 0.29 0.27 0.26 0.28 0.29 0.30 0.32 0.36 0.45 0.57 0.70 0.90 1.11 1.29 1.37 1.44 1.37 1.46 1.46 1.38 1.43 1.55 1.69 1.85 1.88 1.97 2.10 2.24 2.60 3.11 2.87 2.26 2.02 2.34 2.08 1.83 1.67 1.32 1.12 1.12 1.28 1.55
0.28 0.33 0.29 0.32 0.30 0.27 0.24 0.26 0.34 0.47 0.67 0.87 1.09 1.33 1.53 1.57 1.46 1.51 1.54 1.43 1.35 1.32 1.40 1.53 1.67 1.80 1.84 1.98 2.09 2.23 2.76 3.14 2.81 2.49 2.16 1.83 1.78 1.90 1.72 1.33 1.24 1.29 1.38
0.28 0.30 0.28 0.31 0.31 0.29 0.30 0.35 0.54 0.77 1.02 1.24 1.49 1.75 1.73 1.62 1.53 1.53 1.50 1.45 1.46 1.42 1.41 1.55 1.63 1.65 1.71 1.81 2.15 2.42 2.71 2.94 2.92 2.85 2.64 2.36 2.08 1.74 1.87 1.80 1.55 1.42 1.33
0.31 0.38 0.43 0.49 0.53 0.57 0.71 0.89 1.16 1.34 1.44 1.55 1.71 1.81 1.76 1.77 1.70 1.53 1.44 1.42 1.48 1.54 1.57 1.62 1.63 1.60 1.64 1.74 1.97 2.25 2.47 2.81 3.00 2.91 2.70 2.57 2.45 2.23 2.09 1.87 1.74 1.70 1.52
0.40 0.52 0.67 0.78 0.90 1.04 1.18 1.32 1.50 1.64 1.59 1.57 1.62 1.67 1.66 1.63 1.61 1.55 1.46 1.40 1.42 1.46 1.48 1.56 1.68 1.76 1.79 1.91 2.07 2.22 2.13 2.35 2.75 2.76 2.60 2.50 2.31 2.29 2.32 2.16 1.86 1.72 1.45
0.58 0.69 0.77 0.87 1.03 1.18 1.25 1.26 1.36 1.47 1.45 1.42 1.39 1.38 1.45 1.46 1.40 1.32 1.30 1.34 1.42 1.40 1.34 1.38 1.47 1.61 1.77 1.82 1.88 1.89 1.86 1.99 2.24 2.34 2.51 2.62 2.38 2.24 2.11 2.03 2.07 1.85 1.58
0.86 1.01 1.11 1.22 1.25 1.29 1.36 1.28 1.27 1.33 1.34 1.29 1.20 1.18 1.24 1.30 1.31 1.24 1.24 1.23 1.24 1.15 1.06 1.07 1.12 1.20 1.28 1.36 1.51 1.61 1.73 1.77 1.89 2.05 2.19 2.34 2.44 2.34 2.12 2.02 2.00 1.99 1.81
1.10 1.39 1.63 1.79 1.62 1.36 1.27 1.24 1.17 1.18 1.27 1.26 1.18 1.12 1.19 1.19 1.18 1.21 1.18 1.17 1.16 1.06 0.98 0.94 0.91 0.89 0.87 0.91 1.10 1.31 1.44 1.53 1.67 1.86 1.99 2.03 2.09 2.27 2.22 2.03 1.99 1.92 1.82
1.23 1.39 1.58 1.76 1.67 1.36 1.14 1.16 1.19 1.17 1.16 1.16 1.16 1.14 1.10 0.99 0.99 1.04 1.04 1.03 1.01 1.05 1.03 0.94 0.88 0.95 0.96 0.92 0.98 1.05 1.12 1.19 1.32 1.46 1.58 1.74 2.00 2.30 2.31 2.25 2.11 1.99 1.86
1.14 1.13 1.18 1.25 1.28 1.14 0.95 0.92 1.07 1.15 1.11 1.07 1.09 1.08 0.98 0.91 0.88 0.87 0.83 0.73 0.70 0.72 0.81 0.89 0.84 0.82 0.86 0.88 0.94 0.96 1.01 1.04 1.13 1.22 1.35 1.53 1.82 2.16 2.37 2.45 2.33 2.16 2.02
1.12 1.08 1.00 0.94 0.97 0.94 0.86 0.82 0.96 1.11 1.16 1.13 0.98 0.88 0.84 0.81 0.80 0.72 0.68 0.65 0.57 0.56 0.59 0.69 0.69 0.78 0.86 0.88 0.90 0.92 0.95 0.98 1.05 1.20 1.26 1.31 1.50 1.70 1.91 2.10 2.22 2.20 2.17
0.81 0.76 0.70 0.66 0.66 0.69 0.73 0.78 0.88 0.97 1.10 1.22 1.11 0.96 0.87 0.80 0.77 0.70 0.68 0.64 0.61 0.62 0.67 0.78 0.81 0.76 0.74 0.79 0.89 0.93 0.88 0.86 0.89 0.98 1.08 1.17 1.22 1.38 1.52 1.63 1.83 2.04 2.28
0.42 0.42 0.41 0.39 0.40 0.39 0.40 0.49 0.63 0.78 0.97 1.20 1.20 1.04 0.97 0.90 0.77 0.71 0.70 0.67 0.71 0.69 0.71 0.80 0.89 0.94 0.89 0.86 0.94 0.90 0.87 0.87 0.85 0.90 0.90 0.97 0.99 1.06 1.24 1.29 1.52 1.84 2.11
0.29 0.28 0.26 0.25 0.21 0.20 0.22 0.23 0.32 0.51 0.68 0.85 0.93 0.90 0.81 0.71 0.67 0.66 0.64 0.60 0.59 0.56 0.55 0.59 0.65 0.74 0.78 0.99 0.94 0.77 0.73 0.78 0.84 0.89 0.88 0.90 0.84 0.83 0.89 1.02 1.15 1.46 1.67
0.23 0.23 0.23 0.22 0.21 0.21 0.20 0.20 0.25 0.32 0.43 0.57 0.67 0.67 0.62 0.55 0.52 0.55 0.53 0.49 0.44 0.45 0.43 0.43 0.44 0.49 0.65 0.73 0.57 0.55 0.60 0.74 0.85 0.92 0.94 0.90 0.85 0.89 0.90 0.92 0.93 1.00 1.18
0.22 0.22 0.22 0.20 0.18 0.17 0.17 0.19 0.21 0.24 0.26 0.32 0.39 0.41 0.40 0.39 0.39 0.40 0.40 0.40 0.38 0.38 0.36 0.42 0.48 0.50 0.52 0.59 0.49 0.47 0.56 0.75 0.89 0.89 0.85 0.91 0.92 0.95 1.01 0.94 1.01 0.97 0.95
0.13 0.12 0.12 0.10 0.08 0.08 0.10 0.11 0.13 0.14 0.15 0.16 0.18 0.20 0.22 0.26 0.30 0.32 0.35 0.44 0.45 0.42 0.42 0.51 0.58 0.52 0.46 0.52 0.53 0.56 0.70 0.82 0.90 0.87 0.87 0.94 0.99 1.11 1.16 1.07 1.12 1.09 1.06
0.05 0.05 0.04 0.04 0.03 0.04 0.05 0.05 0.07 0.09 0.09 0.10 0.10 0.13 0.15 0.17 0.21 0.26 0.29 0.30 0.31 0.36 0.42 0.44 0.42 0.42 0.49 0.56 0.54 0.66 0.83 0.95 1.05 1.01 1.00 1.18 1.13 1.12 1.06 1.04 1.19 1.16 1.02
0.03 0.03 0.02 0.02 0.03 0.03 0.03 0.03 0.05 0.06 0.08 0.11 0.12 0.14 0.15 0.15 0.16 0.14 0.12 0.14 0.19 0.21 0.23 0.24 0.30 0.37 0.52 0.56 0.59 0.78 0.87 0.94 1.09 1.11 1.07 1.01 1.14 1.08 1.00 0.99 1.05 1.18 1.07
0.02 0.03 0.03 0.03 0.03 0.03 0.04 0.04 0.04 0.07 0.08 0.10 0.11 0.13 0.11 0.10 0.10 0.10 0.09 0.09 0.12 0.15 0.18 0.21 0.26 0.32 0.38 0.45 0.51 0.64 0.76 0.85 1.02 1.10 1.00 0.90 1.12 1.08 0.99 0.91 0.93 1.08 1.15
0.03 0.04 0.05 0.09 0.09 0.06 0.05 0.05 0.06 0.08 0.09 0.10 0.11 0.12 0.12 0.12 0.09 0.08 0.08 0.09 0.10 0.12 0.15 0.19 0.25 0.34 0.38 0.40 0.47 0.53 0.62 0.74 0.91 0.97 0.97 0.99 1.02 0.94 0.90 0.98 1.01 1.04 1.07
0.03 0.06 0.10 0.13 0.15 0.10 0.08 0.07 0.07 0.09 0.10 0.10 0.11 0.12 0.13 0.14 0.11 0.09 0.09 0.08 0.08 0.11 0.15 0.22 0.28 0.33 0.37 0.40 0.51 0.60 0.62 0.71 0.78 0.78 0.81 0.84 0.81 0.80 0.85 0.91 1.00 1.06 1.11
0.03 0.05 0.10 0.12 0.12 0.12 0.12 0.10 0.10 0.09 0.09 0.09 0.11 0.11 0.14 0.15 0.12 0.09 0.08 0.09 0.09 0.12 0.18 0.21 0.25 0.26 0.28 0.36 0.48 0.63 0.72 0.82 0.90 0.90 0.80 0.80 0.80 0.78 0.78 0.83 0.87 0.92 0.93
0.02 0.03 0.06 0.07 0.09 0.11 0.12 0.10 0.10 0.09 0.09 0.10 0.10 0.10 0.10 0.10 0.11 0.11 0.09 0.09 0.09 0.10 0.12 0.13 0.16 0.22 0.26 0.25 0.29 0.42 0.59 0.77 1.02 1.24 1.18 1.16 1.08 0.98 0.88 0.81 0.77 0.76 0.77

GEFSMW_prec_meanprecacc_228.txt.gz
Total_Precipitation_Accumulation
0.41 0.40 0.41 0.45 0.46 0.49 0.52 0.51 0.51 0.59 0.63 0.67 0.80 1.01 1.28 1.39 1.47 1.41 1.23 1.18 1.30 1.55 1.78 1.74 1.81 1.88 1.79 1.77 1.79 2.00 1.95 1.67 1.43 1.50 1.35 1.18 1.08 1.23 1.29 1.24 1.28 1.33 1.39
0.32 0.30 0.31 0.34 0.36 0.38 0.45 0.47 0.47 0.55 0.60 0.65 0.81 0.97 1.11 1.11 1.28 1.43 1.41 1.32 1.31 1.47 1.61 1.87 1.99 1.96 2.04 2.17 2.17 2.54 2.67 2.21 1.77 1.80 1.99 1.73 1.55 1.33 1.20 1.23 1.25 1.40 1.61
0.30 0.30 0.29 0.28 0.29 0.30 0.31 0.33 0.37 0.45 0.57 0.70 0.91 1.11 1.29 1.38 1.44 1.38 1.46 1.47 1.39 1.44 1.56 1.70 1.86 1.89 1.99 2.12 2.26 2.60 3.11 2.88 2.27 2.03 2.36 2.11 1.88 1.73 1.40 1.19 1.20 1.36 1.63
0.29 0.35 0.31 0.34 0.31 0.27 0.25 0.26 0.34 0.48 0.67 0.88 1.10 1.33 1.53 1.57 1.46 1.52 1.55 1.44 1.36 1.33 1.41 1.54 1.68 1.81 1.85 1.99 2.10 2.23 2.76 3.14 2.83 2.51 2.18 1.86 1.79 1.92 1.77 1.38 1.29 1.35 1.45
0.29 0.31 0.30 0.33 0.32 0.30 0.31 0.36 0.54 0.78 1.03 1.25 1.50 1.76 1.74 1.63 1.53 1.54 1.52 1.46 1.47 1.43 1.42 1.57 1.64 1.66 1.73 1.83 2.17 2.44 2.72 2.95 2.93 2.86 2.65 2.37 2.09 1.75 1.89 1.84 1.59 1.46 1.38
0.32 0.39 0.45 0.53 0.56 0.58 0.72 0.90 1.16 1.34 1.45 1.56 1.71 1.82 1.77 1.77 1.71 1.54 1.45 1.43 1.49 1.55 1.59 1.63 1.64 1.61 1.65 1.76 1.99 2.28 2.49 2.82 3.01 2.92 2.71 2.58 2.45 2.23 2.10 1.89 1.76 1.72 1.55
0.40 0.53 0.69 0.82 0.92 1.06 1.19 1.34 1.51 1.65 1.60 1.58 1.63 1.67 1.66 1.63 1.61 1.55 1.47 1.41 1.43 1.47 1.49 1.58 1.70 1.76 1.80 1.92 2.10 2.24 2.16 2.37 2.76 2.76 2.60 2.51 2.32 2.30 2.33 2.18 1.87 1.74 1.47
0.58 0.69 0.77 0.89 1.05 1.20 1.26 1.27 1.38 1.48 1.45 1.43 1.40 1.38 1.45 1.46 1.41 1.32 1.30 1.34 1.43 1.42 1.35 1.39 1.49 1.61 1.78 1.84 1.89 1.92 1.88 2.00 2.25 2.34 2.52 2.62 2.38 2.25 2.12 2.04 2.08 1.86 1.59
0.86 1.01 1.12 1.22 1.26 1.30 1.37 1.29 1.28 1.34 1.35 1.29 1.21 1.20 1.25 1.31 1.31 1.24 1.24 1.23 1.24 1.16 1.08 1.08 1.13 1.22 1.29 1.37 1.52 1.62 1.74 1.77 1.90 2.05 2.19 2.35 2.44 2.34 2.12 2.03 2.01 2.00 1.83
1.10 1.39 1.63 1.80 1.63 1.37 1.28 1.26 1.18 1.19 1.28 1.27 1.19 1.13 1.20 1.20 1.19 1.22 1.19 1.18 1.18 1.08 1.00 0.95 0.92 0.91 0.88 0.92 1.11 1.32 1.45 1.53 1.67 1.86 2.00 2.04 2.09 2.27 2.22 2.03 2.00 1.93 1.83
1.23 1.39 1.59 1.77 1.68 1.37 1.14 1.17 1.21 1.19 1.19 1.18 1.17 1.15 1.11 1.01 1.00 1.05 1.05 1.03 1.03 1.07 1.05 0.95 0.88 0.96 0.97 0.94 1.00 1.07 1.14 1.20 1.33 1.46 1.59 1.74 2.00 2.30 2.31 2.25 2.11 1.99 1.86
1.15 1.13 1.19 1.26 1.29 1.14 0.96 0.93 1.09 1.16 1.13 1.10 1.11 1.09 0.98 0.92 0.89 0.87 0.83 0.73 0.70 0.73 0.82 0.91 0.85 0.83 0.87 0.90 0.95 0.98 1.02 1.05 1.14 1.23 1.36 1.54 1.82 2.16 2.37 2.45 2.33 2.16 2.02
1.12 1.09 1.01 0.95 0.98 0.94 0.87 0.83 0.97 1.12 1.18 1.15 1.00 0.89 0.85 0.82 0.81 0.73 0.69 0.65 0.58 0.57 0.60 0.70 0.70 0.79 0.88 0.90 0.92 0.93 0.96 0.99 1.07 1.21 1.26 1.31 1.51 1.71 1.91 2.10 2.22 2.20 2.18
0.82 0.77 0.71 0.66 0.66 0.70 0.73 0.79 0.90 0.98 1.12 1.24 1.13 0.98 0.88 0.81 0.78 0.71 0.68 0.64 0.62 0.63 0.68 0.79 0.81 0.76 0.75 0.80 0.91 0.94 0.90 0.87 0.90 0.99 1.08 1.18 1.22 1.38 1.52 1.64 1.83 2.04 2.29
0.43 0.42 0.42 0.40 0.40 0.40 0.40 0.49 0.64 0.79 0.98 1.22 1.21 1.06 0.98 0.91 0.78 0.71 0.71 0.69 0.73 0.70 0.71 0.80 0.90 0.95 0.89 0.86 0.94 0.91 0.89 0.89 0.86 0.90 0.91 0.98 1.00 1.06 1.25 1.29 1.52 1.85 2.11
0.29 0.29 0.27 0.26 0.22 0.21 0.22 0.23 0.33 0.52 0.70 0.88 0.96 0.92 0.82 0.72 0.68 0.67 0.65 0.62 0.62 0.57 0.56 0.59 0.66 0.75 0.79 0.99 0.94 0.78 0.74 0.79 0.85 0.90 0.89 0.91 0.85 0.83 0.89 1.03 1.16 1.46 1.67
0.24 0.24 0.23 0.23 0.22 0.21 0.21 0.21 0.26 0.33 0.45 0.59 0.68 0.68 0.62 0.56 0.53 0.56 0.55 0.51 0.45 0.46 0.44 0.44 0.44 0.50 0.65 0.74 0.58 0.56 0.61 0.74 0.86 0.93 0.95 0.91 0.85 0.89 0.90 0.92 0.93 1.00 1.18
0.22 0.22 0.22 0.20 0.18 0.18 0.19 0.21 0.23 0.25 0.28 0.35 0.41 0.42 0.41 0.41 0.41 0.42 0.42 0.40 0.39 0.38 0.37 0.42 0.49 0.50 0.52 0.60 0.50 0.48 0.56 0.75 0.89 0.89 0.85 0.91 0.92 0.95 1.01 0.94 1.01 0.97 0.95
0.13 0.12 0.12 0.11 0.09 0.09 0.11 0.12 0.14 0.15 0.17 0.18 0.20 0.22 0.23 0.27 0.32 0.33 0.37 0.45 0.46 0.43 0.43 0.52 0.59 0.53 0.47 0.53 0.53 0.57 0.70 0.82 0.90 0.87 0.87 0.94 0.99 1.12 1.17 1.07 1.13 1.09 1.06
0.06 0.05 0.04 0.04 0.04 0.05 0.06 0.07 0.09 0.10 0.10 0.11 0.11 0.14 0.16 0.19 0.23 0.28 0.31 0.32 0.32 0.37 0.44 0.45 0.43 0.44 0.51 0.59 0.56 0.66 0.83 0.96 1.05 1.01 1.00 1.18 1.14 1.12 1.07 1.04 1.19 1.16 1.02
0.04 0.04 0.03 0.03 0.04 0.04 0.05 0.05 0.06 0.08 0.09 0.12 0.13 0.15 0.17 0.17 0.19 0.17 0.14 0.16 0.21 0.23 0.25 0.26 0.31 0.39 0.53 0.58 0.61 0.79 0.88 0.95 1.09 1.11 1.07 1.01 1.14 1.08 1.00 0.99 1.05 1.19 1.07
0.03 0.04 0.04 0.04 0.04 0.04 0.05 0.05 0.06 0.08 0.09 0.10 0.12 0.13 0.12 0.12 0.13 0.13 0.11 0.11 0.15 0.18 0.21 0.23 0.28 0.33 0.39 0.46 0.52 0.65 0.77 0.86 1.03 1.10 1.00 0.90 1.13 1.08 0.99 0.91 0.93 1.08 1.15
0.04 0.05 0.07 0.11 0.11 0.07 0.06 0.06 0.07 0.09 0.10 0.10 0.12 0.13 0.12 0.12 0.10 0.09 0.10 0.11 0.13 0.16 0.19 0.23 0.29 0.36 0.39 0.41 0.49 0.54 0.62 0.75 0.92 0.97 0.99 1.00 1.03 0.94 0.90 0.99 1.02 1.04 1.07
0.05 0.08 0.12 0.15 0.17 0.12 0.10 0.09 0.09 0.10 0.11 0.11 0.11 0.12 0.14 0.15 0.11 0.10 0.10 0.10 0.11 0.14 0.18 0.25 0.31 0.36 0.40 0.42 0.53 0.63 0.64 0.73 0.81 0.80 0.82 0.86 0.82 0.81 0.85 0.91 1.01 1.06 1.11
0.03 0.07 0.13 0.14 0.14 0.14 0.13 0.12 0.12 0.10 0.10 0.10 0.12 0.12 0.15 0.16 0.13 0.10 0.09 0.10 0.10 0.14 0.19 0.23 0.28 0.30 0.32 0.38 0.50 0.65 0.74 0.84 0.92 0.92 0.82 0.81 0.80 0.79 0.79 0.83 0.87 0.93 0.94
0.03 0.05 0.08 0.10 0.11 0.12 0.13 0.11 0.11 0.11 0.11 0.12 0.12 0.12 0.11 0.11 0.13 0.14 0.11 0.10 0.10 0.12 0.13 0.14 0.18 0.24 0.29 0.29 0.32 0.44 0.60 0.78 1.03 1.25 1.19 1.16 1.09 0.99 0.89 0.82 0.78 0.76 0.78

GEFSMW_prec_meanprecacc_234.txt.gz
Total_Precipitation_Accumulation
0.43 0.41 0.43 0.48 0.49 0.52 0.54 0.53 0.52 0.60 0.64 0.68 0.81 1.02 1.31 1.41 1.50 1.44 1.25 1.18 1.31 1.56 1.81 1.76 1.83 1.90 1.81 1.78 1.79 2.00 1.95 1.67 1.44 1.51 1.36 1.19 1.09 1.26 1.33 1.27 1.32 1.37 1.40
0.34 0.31 0.32 0.36 0.37 0.40 0.46 0.48 0.48 0.55 0.60 0.65 0.82 0.97 1.12 1.12 1.31 1.44 1.41 1.32 1.32 1.48 1.62 1.89 2.01 1.98 2.07 2.20 2.18 2.55 2.68 2.21 1.77 1.80 1.99 1.75 1.57 1.37 1.24 1.26 1.30 1.43 1.63
0.32 0.31 0.30 0.29 0.30 0.31 0.32 0.34 0.37 0.46 0.58 0.71 0.91 1.11 1.29 1.38 1.45 1.38 1.47 1.48 1.40 1.45 1.56 1.71 1.86 1.90 2.02 2.16 2.27 2.61 3.12 2.88 2.27 2.04 2.37 2.13 1.90 1.77 1.44 1.25 1.27 1.39 1.67
0.31 0.37 0.33 0.35 0.32 0.28 0.25 0.27 0.35 0.48 0.68 0.88 1.10 1.33 1.54 1.57 1.47 1.52 1.56 1.44 1.37 1.33 1.41 1.54 1.68 1.82 1.86 2.01 2.11 2.24 2.76 3.15 2.83 2.51 2.19 1.87 1.81 1.95 1.85 1.49 1.38 1.42 1.56
0.31 0.33 0.31 0.34 0.33 0.31 0.31 0.36 0.55 0.79 1.03 1.25 1.50 1.76 1.74 1.63 1.54 1.55 1.53 1.47 1.47 1.44 1.44 1.57 1.65 1.67 1.74 1.86 2.19 2.46 2.73 2.95 2.94 2.87 2.66 2.39 2.11 1.78 1.96 1.95 1.68 1.56 1.51
0.33 0.40 0.46 0.54 0.56 0.59 0.73 0.91 1.17 1.35 1.45 1.57 1.72 1.82 1.77 1.77 1.72 1.54 1.46 1.45 1.50 1.56 1.59 1.64 1.64 1.62 1.67 1.78 2.01 2.31 2.53 2.83 3.01 2.93 2.72 2.60 2.47 2.25 2.15 1.99 1.85 1.82 1.64
0.41 0.54 0.70 0.83 0.94 1.06 1.21 1.35 1.52 1.65 1.60 1.58 1.63 1.68 1.67 1.64 1.61 1.55 1.47 1.41 1.43 1.47 1.50 1.58 1.70 1.77 1.81 1.93 2.11 2.26 2.19 2.38 2.76 2.77 2.62 2.53 2.33 2.31 2.36 2.25 1.96 1.80 1.52
0.59 0.70 0.78 0.89 1.06 1.22 1.28 1.28 1.38 1.49 1.46 1.43 1.41 1.39 1.46 1.47 1.41 1.32 1.30 1.34 1.43 1.42 1.36 1.39 1.50 1.62 1.79 1.85 1.90 1.93 1.91 2.01 2.26 2.35 2.53 2.63 2.39 2.26 2.14 2.07 2.12 1.90 1.63
0.86 1.01 1.12 1.23 1.27 1.32 1.39 1.31 1.29 1.35 1.35 1.30 1.21 1.20 1.26 1.32 1.32 1.24 1.25 1.24 1.24 1.16 1.08 1.08 1.15 1.23 1.29 1.38 1.53 1.62 1.75 1.79 1.91 2.06 2.20 2.36 2.46 2.36 2.13 2.04 2.03 2.02 1.85
1.11 1.39 1.64 1.80 1.63 1.37 1.29 1.27 1.20 1.21 1.29 1.28 1.20 1.14 1.21 1.22 1.20 1.22 1.19 1.19 1.18 1.09 1.00 0.96 0.93 0.92 0.88 0.92 1.12 1.32 1.45 1.54 1.69 1.87 2.01 2.05 2.11 2.29 2.23 2.03 2.00 1.94 1.84
1.24 1.40 1.59 1.77 1.68 1.37 1.15 1.18 1.23 1.21 1.21 1.21 1.19 1.16 1.13 1.03 1.02 1.06 1.06 1.04 1.04 1.08 1.06 0.96 0.89 0.98 0.98 0.94 1.01 1.07 1.15 1.21 1.34 1.47 1.59 1.75 2.01 2.31 2.32 2.25 2.12 1.99 1.86
1.15 1.14 1.19 1.26 1.29 1.15 0.97 0.94 1.10 1.17 1.14 1.12 1.13 1.09 0.99 0.93 0.90 0.89 0.85 0.74 0.71 0.74 0.83 0.92 0.86 0.84 0.88 0.91 0.97 0.99 1.03 1.07 1.16 1.25 1.38 1.55 1.83 2.17 2.38 2.45 2.33 2.17 2.02
1.13 1.09 1.01 0.95 0.98 0.95 0.87 0.84 0.98 1.13 1.18 1.16 1.02 0.91 0.86 0.83 0.82 0.74 0.69 0.66 0.58 0.57 0.62 0.71 0.71 0.80 0.89 0.91 0.94 0.95 0.98 1.01 1.10 1.24 1.29 1.34 1.52 1.71 1.92 2.11 2.23 2.21 2.18
0.82 0.77 0.71 0.66 0.67 0.70 0.74 0.79 0.90 1.00 1.12 1.24 1.14 0.99 0.89 0.83 0.79 0.72 0.69 0.65 0.63 0.64 0.69 0.80 0.82 0.77 0.76 0.81 0.93 0.96 0.92 0.90 0.94 1.01 1.11 1.20 1.24 1.39 1.53 1.65 1.84 2.05 2.29
0.43 0.43 0.42 0.40 0.41 0.41 0.41 0.50 0.65 0.80 1.00 1.23 1.22 1.07 0.99 0.93 0.79 0.72 0.71 0.69 0.73 0.71 0.72 0.81 0.91 0.96 0.90 0.87 0.96 0.92 0.90 0.91 0.89 0.92 0.93 1.00 1.01 1.07 1.25 1.30 1.53 1.85 2.12
0.30 0.30 0.28 0.26 0.22 0.21 0.23 0.24 0.34 0.53 0.71 0.88 0.96 0.92 0.83 0.73 0.69 0.68 0.66 0.63 0.62 0.58 0.57 0.60 0.66 0.75 0.80 1.00 0.96 0.79 0.75 0.80 0.86 0.91 0.90 0.92 0.86 0.83 0.90 1.03 1.16 1.46 1.68
0.24 0.24 0.23 0.23 0.22 0.22 0.21 0.22 0.26 0.34 0.45 0.59 0.69 0.68 0.63 0.56 0.54 0.57 0.55 0.51 0.46 0.47 0.44 0.44 0.45 0.51 0.66 0.75 0.59 0.57 0.61 0.75 0.86 0.93 0.95 0.91 0.85 0.89 0.90 0.92 0.93 1.00 1.18
0.23 0.22 0.23 0.20 0.19 0.19 0.19 0.21 0.23 0.25 0.28 0.35 0.41 0.43 0.42 0.41 0.41 0.42 0.42 0.41 0.40 0.39 0.38 0.43 0.50 0.51 0.53 0.61 0.51 0.48 0.57 0.76 0.89 0.89 0.85 0.92 0.93 0.95 1.01 0.94 1.01 0.97 0.95
0.14 0.13 0.13 0.11 0.09 0.09 0.11 0.12 0.14 0.16 0.17 0.18 0.21 0.22 0.23 0.27 0.32 0.33 0.37 0.45 0.47 0.44 0.44 0.54 0.61 0.55 0.49 0.54 0.54 0.58 0.71 0.83 0.91 0.87 0.87 0.94 0.99 1.12 1.17 1.07 1.13 1.09 1.06
0.06 0.06 0.05 0.05 0.04 0.05 0.06 0.07 0.09 0.10 0.11 0.11 0.11 0.15 0.17 0.19 0.23 0.28 0.31 0.32 0.33 0.39 0.46 0.47 0.45 0.45 0.52 0.60 0.57 0.67 0.84 0.96 1.06 1.01 1.00 1.19 1.14 1.12 1.07 1.05 1.19 1.16 1.02
0.05 0.05 0.03 0.03 0.04 0.04 0.05 0.05 0.06 0.08 0.10 0.13 0.14 0.16 0.17 0.18 0.20 0.17 0.15 0.17 0.22 0.25 0.26 0.28 0.33 0.40 0.54 0.59 0.62 0.80 0.88 0.95 1.09 1.11 1.07 1.01 1.15 1.09 1.01 1.00 1.05 1.19 1.07
0.05 0.05 0.05 0.05 0.05 0.04 0.05 0.05 0.06 0.08 0.10 0.11 0.13 0.14 0.13 0.12 0.14 0.13 0.11 0.12 0.15 0.19 0.22 0.25 0.29 0.35 0.40 0.47 0.53 0.66 0.78 0.87 1.03 1.11 1.02 0.91 1.14 1.09 1.00 0.91 0.93 1.08 1.15
0.06 0.07 0.09 0.12 0.11 0.08 0.06 0.06 0.07 0.09 0.10 0.11 0.13 0.14 0.14 0.13 0.11 0.09 0.10 0.11 0.13 0.16 0.20 0.24 0.30 0.38 0.42 0.42 0.50 0.55 0.63 0.76 0.94 0.99 1.00 1.01 1.04 0.95 0.90 0.99 1.02 1.05 1.07
0.06 0.10 0.14 0.16 0.17 0.13 0.10 0.09 0.09 0.10 0.11 0.11 0.12 0.13 0.15 0.16 0.12 0.11 0.11 0.10 0.11 0.14 0.19 0.26 0.32 0.37 0.42 0.44 0.55 0.65 0.66 0.75 0.82 0.81 0.83 0.87 0.83 0.82 0.86 0.92 1.01 1.06 1.12
0.04 0.08 0.14 0.15 0.15 0.14 0.14 0.12 0.12 0.10 0.10 0.11 0.13 0.13 0.16 0.18 0.14 0.11 0.10 0.11 0.11 0.16 0.21 0.25 0.30 0.31 0.34 0.41 0.53 0.68 0.77 0.88 0.96 0.95 0.83 0.83 0.82 0.80 0.80 0.84 0.88 0.93 0.94
0.03 0.05 0.08 0.10 0.11 0.12 0.14 0.11 0.11 0.11 0.11 0.12 0.13 0.13 0.12 0.13 0.14 0.15 0.12 0.11 0.11 0.13 0.15 0.16 0.19 0.25 0.30 0.31 0.35 0.47 0.63 0.81 1.07 1.29 1.23 1.19 1.10 1.01 0.90 0.84 0.79 0.77 0.79

GEFSMW_prec_meanprecacc_240.txt.gz
Total_Precipitation_Accumulation
0.45 0.43 0.45 0.50 0.52 0.54 0.55 0.54 0.54 0.62 0.65 0.69 0.82 1.03 1.32 1.43 1.53 1.46 1.26 1.19 1.31 1.57 1.81 1.78 1.86 1.94 1.84 1.80 1.81 2.03 1.97 1.70 1.47 1.54 1.38 1.21 1.10 1.28 1.35 1.29 1.34 1.42 1.47
0.35 0.32 0.33 0.37 0.39 0.42 0.48 0.49 0.49 0.57 0.61 0.66 0.83 0.98 1.14 1.16 1.33 1.45 1.42 1.33 1.33 1.48 1.63 1.90 2.03 2.01 2.10 2.22 2.19 2.56 2.70 2.22 1.78 1.81 2.01 1.77 1.59 1.41 1.29 1.30 1.32 1.47 1.67
0.33 0.32 0.31 0.30 0.31 0.33 0.33 0.35 0.39 0.47 0.58 0.71 0.92 1.12 1.31 1.40 1.47 1.40 1.48 1.49 1.41 1.46 1.57 1.72 1.87 1.91 2.03 2.18 2.29 2.62 3.14 2.90 2.28 2.05 2.39 2.15 1.93 1.82 1.49 1.29 1.29 1.41 1.70
0.32 0.37 0.34 0.36 0.33 0.29 0.26 0.28 0.36 0.50 0.68 0.89 1.11 1.34 1.54 1.58 1.48 1.53 1.57 1.45 1.37 1.34 1.42 1.55 1.68 1.82 1.87 2.02 2.12 2.25 2.78 3.17 2.85 2.53 2.20 1.88 1.83 1.98 1.89 1.53 1.41 1.45 1.58
0.31 0.34 0.32 0.35 0.34 0.32 0.32 0.37 0.56 0.80 1.04 1.26 1.51 1.77 1.75 1.63 1.54 1.55 1.54 1.48 1.48 1.44 1.44 1.58 1.65 1.68 1.75 1.87 2.20 2.46 2.74 2.97 2.96 2.89 2.68 2.40 2.13 1.81 2.00 1.99 1.72 1.59 1.55
0.33 0.41 0.46 0.54 0.57 0.60 0.73 0.91 1.17 1.36 1.46 1.57 1.72 1.83 1.77 1.78 1.72 1.55 1.47 1.46 1.51 1.57 1.60 1.65 1.65 1.63 1.67 1.79 2.02 2.32 2.54 2.84 3.03 2.95 2.75 2.62 2.50 2.28 2.19 2.03 1.90 1.88 1.69
0.41 0.54 0.70 0.83 0.94 1.08 1.23 1.37 1.53 1.66 1.61 1.58 1.64 1.68 1.67 1.64 1.62 1.56 1.48 1.42 1.44 1.48 1.51 1.59 1.71 1.78 1.82 1.94 2.12 2.27 2.19 2.39 2.77 2.79 2.64 2.55 2.35 2.32 2.40 2.31 2.01 1.87 1.58
0.59 0.70 0.78 0.90 1.06 1.23 1.30 1.30 1.40 1.50 1.47 1.44 1.42 1.40 1.47 1.47 1.41 1.32 1.30 1.35 1.44 1.44 1.36 1.40 1.50 1.62 1.80 1.86 1.92 1.94 1.92 2.02 2.27 2.36 2.55 2.65 2.41 2.28 2.20 2.15 2.20 1.98 1.68
0.87 1.02 1.12 1.23 1.27 1.33 1.40 1.32 1.30 1.35 1.36 1.31 1.23 1.23 1.27 1.33 1.32 1.24 1.25 1.24 1.25 1.18 1.09 1.09 1.15 1.23 1.30 1.38 1.53 1.63 1.76 1.80 1.92 2.07 2.21 2.37 2.48 2.40 2.18 2.12 2.09 2.07 1.88
1.11 1.39 1.64 1.80 1.63 1.37 1.29 1.28 1.21 1.21 1.30 1.28 1.21 1.15 1.22 1.24 1.22 1.22 1.19 1.20 1.19 1.09 1.01 0.97 0.94 0.92 0.89 0.93 1.13 1.33 1.46 1.55 1.70 1.88 2.02 2.07 2.13 2.30 2.25 2.06 2.03 1.96 1.85
1.25 1.40 1.59 1.77 1.68 1.37 1.15 1.18 1.23 1.21 1.22 1.22 1.21 1.18 1.14 1.05 1.05 1.08 1.07 1.06 1.05 1.09 1.06 0.96 0.90 0.99 0.99 0.95 1.02 1.08 1.15 1.22 1.35 1.49 1.62 1.78 2.03 2.32 2.32 2.25 2.12 2.00 1.87
1.15 1.14 1.20 1.26 1.29 1.15 0.97 0.94 1.10 1.18 1.15 1.13 1.14 1.11 1.01 0.95 0.94 0.92 0.86 0.76 0.72 0.74 0.84 0.93 0.87 0.86 0.90 0.92 0.98 1.00 1.04 1.08 1.18 1.27 1.40 1.58 1.84 2.18 2.38 2.45 2.34 2.17 2.03
1.13 1.10 1.01 0.95 0.98 0.95 0.87 0.84 0.98 1.13 1.19 1.17 1.03 0.92 0.87 0.84 0.84 0.76 0.71 0.68 0.60 0.58 0.63 0.72 0.72 0.81 0.90 0.92 0.95 0.96 0.99 1.02 1.11 1.24 1.30 1.35 1.53 1.73 1.93 2.11 2.24 2.21 2.18
0.83 0.78 0.72 0.67 0.67 0.70 0.74 0.79 0.91 1.00 1.12 1.24 1.14 1.00 0.90 0.83 0.80 0.73 0.70 0.66 0.63 0.65 0.70 0.80 0.83 0.78 0.77 0.82 0.93 0.98 0.93 0.91 0.94 1.02 1.12 1.20 1.25 1.42 1.54 1.65 1.85 2.06 2.29
0.43 0.43 0.42 0.41 0.41 0.41 0.41 0.50 0.65 0.80 1.00 1.23 1.22 1.07 1.00 0.93 0.80 0.73 0.72 0.70 0.74 0.71 0.72 0.81 0.91 0.96 0.90 0.88 0.96 0.93 0.92 0.92 0.90 0.93 0.94 1.00 1.02 1.08 1.26 1.31 1.53 1.86 2.12
0.30 0.30 0.28 0.27 0.23 0.21 0.23 0.24 0.34 0.53 0.71 0.88 0.96 0.93 0.84 0.73 0.70 0.69 0.67 0.63 0.62 0.58 0.57 0.60 0.66 0.75 0.80 1.01 0.97 0.81 0.76 0.82 0.88 0.92 0.91 0.93 0.86 0.84 0.90 1.03 1.16 1.46 1.68
0.24 0.24 0.23 0.23 0.22 0.22 0.21 0.22 0.26 0.34 0.45 0.60 0.69 0.69 0.63 0.56 0.54 0.58 0.56 0.52 0.46 0.47 0.45 0.45 0.45 0.51 0.67 0.77 0.60 0.58 0.62 0.76 0.87 0.94 0.97 0.93 0.86 0.90 0.90 0.92 0.93 1.00 1.18
0.23 0.22 0.23 0.21 0.19 0.19 0.19 0.21 0.23 0.25 0.28 0.35 0.41 0.43 0.42 0.41 0.42 0.43 0.42 0.41 0.40 0.39 0.38 0.44 0.51 0.52 0.55 0.63 0.52 0.49 0.58 0.77 0.90 0.90 0.86 0.93 0.93 0.95 1.01 0.94 1.01 0.97 0.95
0.14 0.13 0.13 0.11 0.10 0.10 0.11 0.12 0.14 0.16 0.17 0.18 0.21 0.22 0.23 0.27 0.32 0.33 0.37 0.45 0.47 0.44 0.44 0.54 0.62 0.56 0.50 0.56 0.56 0.59 0.72 0.84 0.91 0.88 0.88 0.95 1.00 1.12 1.17 1.07 1.13 1.09 1.06
0.07 0.06 0.05 0.05 0.05 0.05 0.07 0.07 0.09 0.11 0.11 0.11 0.12 0.15 0.17 0.20 0.24 0.28 0.31 0.32 0.33 0.39 0.46 0.48 0.45 0.46 0.53 0.62 0.59 0.68 0.84 0.96 1.06 1.02 1.01 1.19 1.15 1.13 1.08 1.05 1.19 1.16 1.02
0.06 0.05 0.04 0.04 0.04 0.05 0.05 0.05 0.06 0.08 0.11 0.14 0.15 0.16 0.18 0.19 0.21 0.18 0.15 0.17 0.22 0.25 0.26 0.28 0.33 0.41 0.55 0.60 0.63 0.81 0.89 0.95 1.10 1.12 1.08 1.02 1.16 1.10 1.02 1.01 1.06 1.20 1.08
0.05 0.05 0.06 0.06 0.05 0.05 0.06 0.06 0.07 0.09 0.11 0.12 0.13 0.15 0.14 0.13 0.14 0.14 0.12 0.12 0.15 0.19 0.22 0.25 0.30 0.35 0.41 0.48 0.54 0.68 0.80 0.88 1.05 1.12 1.02 0.92 1.15 1.10 1.01 0.92 0.94 1.10 1.16
0.06 0.07 0.10 0.13 0.12 0.08 0.07 0.08 0.10 0.11 0.11 0.11 0.13 0.14 0.14 0.14 0.11 0.10 0.11 0.12 0.14 0.16 0.20 0.24 0.31 0.39 0.42 0.43 0.50 0.56 0.65 0.78 0.96 1.01 1.02 1.02 1.05 0.96 0.91 1.00 1.03 1.06 1.09
0.06 0.10 0.14 0.17 0.19 0.15 0.11 0.10 0.10 0.11 0.12 0.11 0.13 0.14 0.15 0.16 0.13 0.12 0.11 0.11 0.12 0.14 0.19 0.26 0.32 0.38 0.42 0.44 0.55 0.65 0.67 0.76 0.83 0.82 0.85 0.89 0.84 0.83 0.87 0.93 1.02 1.08 1.14
0.04 0.08 0.15 0.17 0.16 0.16 0.15 0.13 0.13 0.11 0.11 0.11 0.13 0.13 0.16 0.18 0.15 0.11 0.10 0.11 0.12 0.16 0.22 0.26 0.30 0.32 0.34 0.41 0.54 0.69 0.78 0.90 0.99 0.99 0.87 0.85 0.84 0.81 0.81 0.85 0.90 0.96 0.97
0.04 0.06 0.09 0.11 0.12 0.13 0.14 0.12 0.12 0.12 0.11 0.12 0.13 0.13 0.13 0.13 0.14 0.15 0.13 0.12 0.12 0.14 0.16 0.18 0.22 0.27 0.32 0.33 0.37 0.48 0.64 0.82 1.07 1.30 1.24 1.22 1.13 1.03 0.92 0.85 0.81 0.79 0.81

GEFSMW_prec_meanprecacc_246.txt.gz
Total_Precipitation_Accumulation
0.46 0.43 0.46 0.52 0.53 0.56 0.57 0.56 0.55 0.63 0.66 0.70 0.83 1.04 1.33 1.44 1.54 1.46 1.26 1.20 1.32 1.57 1.82 1.79 1.88 1.95 1.87 1.82 1.82 2.05 2.00 1.72 1.49 1.56 1.40 1.23 1.12 1.29 1.37 1.31 1.37 1.45 1.51
0.36 0.33 0.34 0.38 0.40 0.43 0.49 0.50 0.50 0.58 0.63 0.67 0.83 0.99 1.15 1.16 1.33 1.46 1.43 1.34 1.33 1.49 1.63 1.91 2.05 2.03 2.13 2.24 2.21 2.59 2.72 2.24 1.80 1.84 2.04 1.79 1.61 1.43 1.31 1.32 1.36 1.52 1.72
0.34 0.32 0.31 0.31 0.32 0.33 0.34 0.35 0.39 0.48 0.59 0.72 0.92 1.13 1.33 1.41 1.49 1.41 1.49 1.50 1.41 1.46 1.58 1.73 1.89 1.93 2.05 2.20 2.30 2.64 3.17 2.93 2.30 2.07 2.42 2.19 1.98 1.86 1.52 1.32 1.34 1.46 1.74
0.32 0.38 0.34 0.36 0.34 0.30 0.27 0.29 0.38 0.51 0.69 0.90 1.12 1.35 1.56 1.60 1.50 1.54 1.58 1.46 1.38 1.35 1.44 1.57 1.71 1.84 1.88 2.03 2.12 2.26 2.80 3.20 2.88 2.55 2.22 1.91 1.87 2.03 1.94 1.57 1.45 1.48 1.61
0.32 0.34 0.32 0.36 0.36 0.33 0.33 0.38 0.58 0.81 1.05 1.26 1.51 1.77 1.75 1.65 1.55 1.55 1.55 1.48 1.48 1.45 1.45 1.58 1.66 1.68 1.75 1.87 2.21 2.47 2.76 3.00 2.98 2.92 2.71 2.44 2.16 1.83 2.05 2.05 1.77 1.63 1.58
0.34 0.41 0.47 0.55 0.60 0.62 0.75 0.93 1.19 1.38 1.47 1.58 1.72 1.84 1.78 1.78 1.73 1.56 1.48 1.47 1.52 1.58 1.60 1.65 1.66 1.63 1.68 1.79 2.04 2.33 2.55 2.85 3.05 2.97 2.79 2.66 2.53 2.31 2.22 2.07 1.93 1.91 1.72
0.42 0.55 0.70 0.83 0.96 1.10 1.25 1.39 1.55 1.68 1.62 1.59 1.64 1.68 1.67 1.64 1.62 1.57 1.49 1.43 1.45 1.50 1.52 1.60 1.72 1.79 1.83 1.95 2.13 2.28 2.20 2.40 2.79 2.81 2.66 2.58 2.38 2.35 2.44 2.34 2.04 1.90 1.60
0.60 0.70 0.78 0.90 1.06 1.24 1.31 1.32 1.41 1.51 1.48 1.45 1.43 1.41 1.47 1.47 1.41 1.33 1.31 1.35 1.45 1.44 1.37 1.40 1.50 1.63 1.81 1.87 1.92 1.95 1.92 2.03 2.27 2.37 2.56 2.67 2.43 2.31 2.23 2.19 2.23 2.01 1.71
0.87 1.02 1.12 1.23 1.27 1.33 1.40 1.32 1.30 1.36 1.36 1.31 1.24 1.24 1.27 1.33 1.32 1.25 1.25 1.24 1.25 1.18 1.09 1.09 1.15 1.23 1.30 1.39 1.54 1.64 1.76 1.80 1.92 2.07 2.22 2.38 2.51 2.43 2.22 2.15 2.12 2.10 1.91
1.11 1.40 1.64 1.81 1.63 1.37 1.29 1.28 1.21 1.21 1.30 1.29 1.22 1.16 1.23 1.24 1.22 1.23 1.20 1.20 1.19 1.10 1.01 0.97 0.94 0.93 0.89 0.93 1.13 1.34 1.47 1.55 1.70 1.89 2.03 2.08 2.15 2.33 2.29 2.10 2.07 1.99 1.88
1.25 1.41 1.60 1.77 1.68 1.37 1.15 1.19 1.24 1.22 1.23 1.22 1.22 1.19 1.15 1.06 1.05 1.08 1.07 1.06 1.05 1.09 1.06 0.97 0.91 0.99 1.00 0.96 1.02 1.09 1.16 1.22 1.36 1.50 1.63 1.78 2.04 2.34 2.35 2.29 2.16 2.03 1.90
1.15 1.14 1.20 1.26 1.29 1.15 0.97 0.95 1.10 1.19 1.16 1.14 1.15 1.12 1.02 0.96 0.94 0.92 0.87 0.78 0.73 0.75 0.85 0.94 0.88 0.86 0.90 0.93 0.98 1.00 1.05 1.09 1.19 1.28 1.41 1.59 1.86 2.19 2.40 2.48 2.37 2.20 2.05
1.14 1.10 1.02 0.95 0.98 0.95 0.87 0.84 0.98 1.14 1.19 1.17 1.05 0.93 0.89 0.85 0.86 0.78 0.73 0.69 0.61 0.59 0.63 0.72 0.72 0.81 0.90 0.93 0.96 0.96 1.00 1.03 1.11 1.25 1.31 1.36 1.54 1.73 1.93 2.12 2.25 2.23 2.20
0.83 0.78 0.72 0.67 0.68 0.71 0.74 0.79 0.91 1.00 1.13 1.25 1.16 1.02 0.93 0.87 0.82 0.75 0.72 0.67 0.64 0.66 0.71 0.81 0.84 0.78 0.77 0.82 0.94 0.98 0.94 0.92 0.95 1.03 1.12 1.21 1.25 1.42 1.55 1.66 1.86 2.06 2.30
0.43 0.43 0.42 0.41 0.41 0.42 0.42 0.50 0.65 0.81 1.00 1.23 1.23 1.09 1.03 0.96 0.81 0.75 0.73 0.70 0.74 0.71 0.73 0.82 0.91 0.96 0.91 0.88 0.97 0.94 0.93 0.92 0.90 0.94 0.94 1.01 1.03 1.09 1.27 1.32 1.54 1.86 2.12
0.30 0.30 0.28 0.27 0.23 0.22 0.24 0.25 0.34 0.53 0.71 0.89 0.97 0.94 0.85 0.75 0.71 0.71 0.67 0.63 0.62 0.58 0.57 0.60 0.67 0.76 0.81 1.03 0.99 0.82 0.78 0.83 0.88 0.93 0.92 0.94 0.87 0.85 0.91 1.04 1.17 1.47 1.68
0.24 0.24 0.24 0.23 0.22 0.22 0.22 0.22 0.27 0.34 0.46 0.60 0.69 0.69 0.64 0.58 0.56 0.58 0.56 0.52 0.47 0.48 0.46 0.45 0.46 0.52 0.68 0.78 0.61 0.59 0.63 0.77 0.88 0.95 0.98 0.95 0.88 0.91 0.92 0.93 0.94 1.01 1.18
0.23 0.23 0.23 0.21 0.19 0.19 0.19 0.21 0.23 0.26 0.29 0.35 0.42 0.43 0.43 0.43 0.43 0.44 0.43 0.42 0.41 0.41 0.40 0.44 0.51 0.53 0.56 0.64 0.53 0.50 0.59 0.79 0.91 0.91 0.87 0.94 0.95 0.97 1.03 0.95 1.02 0.97 0.95
0.15 0.14 0.13 0.11 0.10 0.10 0.11 0.12 0.15 0.17 0.18 0.18 0.21 0.23 0.24 0.28 0.33 0.34 0.38 0.47 0.49 0.46 0.46 0.56 0.63 0.57 0.50 0.56 0.56 0.59 0.72 0.85 0.93 0.89 0.90 0.97 1.01 1.14 1.18 1.09 1.14 1.10 1.07
0.07 0.07 0.05 0.05 0.05 0.06 0.07 0.07 0.09 0.11 0.12 0.12 0.12 0.15 0.18 0.21 0.25 0.30 0.33 0.33 0.35 0.40 0.47 0.48 0.46 0.47 0.54 0.62 0.59 0.69 0.85 0.99 1.08 1.04 1.03 1.22 1.17 1.16 1.11 1.07 1.21 1.18 1.05
0.06 0.06 0.04 0.04 0.05 0.05 0.06 0.06 0.07 0.09 0.11 0.14 0.15 0.17 0.18 0.20 0.23 0.21 0.17 0.19 0.23 0.25 0.27 0.28 0.34 0.41 0.56 0.61 0.64 0.82 0.91 0.98 1.13 1.14 1.11 1.06 1.19 1.13 1.05 1.04 1.09 1.22 1.11
0.05 0.05 0.06 0.06 0.05 0.05 0.06 0.07 0.08 0.10 0.12 0.14 0.15 0.16 0.15 0.14 0.15 0.15 0.13 0.13 0.16 0.19 0.23 0.25 0.30 0.35 0.41 0.48 0.55 0.69 0.81 0.90 1.06 1.15 1.05 0.94 1.17 1.12 1.02 0.93 0.95 1.10 1.17
0.06 0.07 0.10 0.13 0.13 0.09 0.07 0.09 0.10 0.12 0.13 0.13 0.14 0.16 0.16 0.15 0.11 0.10 0.13 0.14 0.15 0.17 0.20 0.25 0.31 0.39 0.42 0.43 0.50 0.56 0.65 0.78 0.96 1.01 1.02 1.03 1.05 0.96 0.91 1.00 1.03 1.06 1.09
0.06 0.10 0.15 0.17 0.19 0.15 0.12 0.10 0.11 0.12 0.13 0.13 0.14 0.16 0.16 0.17 0.13 0.12 0.12 0.13 0.13 0.15 0.20 0.26 0.33 0.38 0.42 0.44 0.55 0.65 0.67 0.76 0.83 0.82 0.86 0.89 0.85 0.83 0.87 0.93 1.02 1.08 1.14
0.04 0.08 0.15 0.17 0.16 0.16 0.15 0.14 0.13 0.12 0.11 0.12 0.14 0.14 0.17 0.19 0.15 0.12 0.11 0.12 0.13 0.17 0.23 0.27 0.31 0.32 0.34 0.41 0.54 0.69 0.78 0.90 0.99 0.99 0.87 0.86 0.84 0.82 0.82 0.86 0.91 0.96 0.97
0.04 0.06 0.09 0.11 0.12 0.13 0.15 0.12 0.12 0.12 0.12 0.13 0.14 0.14 0.13 0.14 0.15 0.16 0.13 0.12 0.13 0.15 0.17 0.19 0.23 0.28 0.32 0.34 0.37 0.49 0.65 0.83 1.08 1.31 1.25 1.22 1.13 1.03 0.92 0.85 0.81 0.79 0.81